This demonstration page uses our WeatherBlox Daily Observations layout. Learn more.

40.92945, -100.16068

Hourly Observations for June 22, 2018

Temp ( °F °C ) Dew Point ( °F °C ) Humidity (%) Winds ( mph kmh ) Pressure ( in mb ) Visibility ( mi km ) Precip ( " mm )
12:15 am 00:15 Clear 60 15.6 57 14 90 90 NE 5 7 29.97 1015 10 16.0934 0 0
12:35 am 00:35 Clear 60 15.6 57 14.1 91 91 NE 6 9 29.97 1015 10 16.0934 0 0
12:55 am 00:55 Clear 60 15.3 57 13.8 91 91 NE 7 11 29.97 1015 10 16.0934 0 0
1:15 am 01:15 Clear 58 14.7 56 13.5 93 93 N 5 7 29.97 1015 10 16.0934 0 0
1:35 am 01:35 Clear 58 14.2 56 13.1 93 93 WNW 6 9 29.97 1015 10 16.0934 0 0
1:55 am 01:55 Clear 57 14 55 12.8 93 93 WNW 3 6 29.97 1015 10 16.0934 0 0
2:15 am 02:15 Clear 57 14 55 13 94 94 WNW 5 7 29.97 1015 10 16.0934 0 0
2:35 am 02:35 Clear 57 13.9 55 12.9 94 94 N 5 7 29.97 1015 10 16.0934 0 0
2:55 am 02:55 Clear 56 13.4 54 12.4 94 94 N 6 9 29.94 1014 7 11.26538 0 0
3:15 am 03:15 Clear 55 12.9 54 12 94 94 Calm 29.94 1014 7 11.26538 0 0
3:35 am 03:35 Clear 55 12.7 53 11.8 94 94 W 5 7 29.97 1015 7 11.26538 0 0
3:55 am 03:55 Clear 55 12.5 53 11.7 95 95 WNW 3 6 29.97 1015 7 11.26538 0 0
4:15 am 04:15 Clear 54 12.3 53 11.5 95 95 W 6 9 29.97 1015 7 11.26538 0 0
4:35 am 04:35 Clear 55 12.5 53 11.6 94 94 NNW 3 6 29.97 1015 7 11.26538 0 0
4:55 am 04:55 Clear with Mist and Fog 54 12 52 11.2 95 95 Calm 29.97 1015 5 8.0467 0 0
5:15 am 05:15 Clear 54 12.2 53 11.5 96 96 NNW 5 7 29.97 1015 7 11.26538 0 0
5:35 am 05:35 Clear 53 11.8 52 11 95 95 NW 7 11 29.97 1015 7 11.26538 0 0
5:55 am 05:55 Clear 53 11.8 52 11 95 95 WNW 6 9 29.97 1015 7 11.26538 0 0
6:15 am 06:15 Sunny with Mist and Fog 53 11.7 52 11 96 96 NW 7 11 29.97 1015 4 6.43736 0 0
6:35 am 06:35 Sunny with Mist and Fog 53 11.7 52 11 96 96 NW 3 6 29.97 1015 5 8.0467 0 0
6:55 am 06:55 Sunny 54 12.1 52 11.3 95 95 Calm 29.97 1015 7 11.26538 0 0
7:15 am 07:15 Sunny 55 13 54 12 94 94 Calm 29.94 1014 10 16.0934 0 0
7:35 am 07:35 Sunny 57 14.1 55 12.9 93 93 Calm 29.94 1014 10 16.0934 0 0
7:55 am 07:55 Sunny 60 15.3 54 12.4 83 83 Calm 29.94 1014 10 16.0934 0 0
8:15 am 08:15 Sunny 62 16.5 55 12.5 77 77 Calm 29.91 1013 10 16.0934 0 0
8:35 am 08:35 Sunny 64 17.5 55 12.5 73 73 Calm 29.91 1013 10 16.0934 0 0
8:55 am 08:55 Sunny 64 18 55 12.7 71 71 NE 5 7 29.91 1013 10 16.0934 0 0
9:15 am 09:15 Sunny 65 18.5 55 12.5 68 68 NE 5 7 29.94 1014 10 16.0934 0 0
9:35 am 09:35 Sunny 67 19.2 56 13.1 68 68 ENE 5 7 29.94 1014 10 16.0934 0 0
9:55 am 09:55 Sunny 68 19.9 56 13.2 65 65 ENE 7 11 29.91 1013 10 16.0934 0 0
10:15 am 10:15 Sunny 69 20.5 56 13.5 64 64 E 9 15 29.88 1012 10 16.0934 0 0
10:35 am 10:35 Sunny 70 21.1 56 13.5 62 62 ENE 10 17 29.88 1012 10 16.0934 0 0
10:55 am 10:55 Sunny 71 21.5 56 13.4 60 60 E 12 19 29.88 1012 10 16.0934 0 0
11:15 am 11:15 Sunny 71 21.6 56 13.1 59 59 ENE 9 15 29.88 1012 10 16.0934 0 0
11:35 am 11:35 Sunny 72 22 55 12.9 56 56 E 9 15 29.88 1012 10 16.0934 0 0
11:55 am 11:55 Sunny 72 22.1 56 13.2 57 57 E 6 9 29.88 1012 10 16.0934 0 0
12:15 pm 12:15 Sunny 73 22.5 56 13.5 57 57 ENE 6 9 29.85 1011 10 16.0934 0 0
12:35 pm 12:35 Sunny 74 23.1 57 14.1 57 57 E 10 17 29.83 1010 10 16.0934 0 0
12:55 pm 12:55 Sunny 73 23 57 14 57 57 E 5 7 29.83 1010 10 16.0934 0 0
1:15 pm 13:15 Sunny 74 23.2 57 13.9 56 56 E 10 17 29.83 1010 10 16.0934 0 0
1:35 pm 13:35 Partly Cloudy 75 23.8 58 14.5 56 56 SSE 6 9 29.83 1010 10 16.0934 0 0
1:55 pm 13:55 Partly Cloudy 74 23.6 58 14.3 56 56 E 3 6 29.83 1010 10 16.0934 0 0
2:15 pm 14:15 Sunny 74 23.5 58 14.3 56 56 ENE 8 13 29.8 1009 10 16.0934 0 0
2:35 pm 14:35 Sunny 76 24.2 58 14.3 54 54 E 5 7 29.8 1009 10 16.0934 0 0
2:55 pm 14:55 Sunny 76 24.6 58 14.3 53 53 E 6 9 29.77 1008 10 16.0934 0 0
3:15 pm 15:15 Sunny 77 24.9 58 14.2 51 51 ESE 8 13 29.77 1008 10 16.0934 0 0
3:35 pm 15:35 Sunny 77 24.9 57 14.1 51 51 ESE 10 17 29.77 1008 10 16.0934 0 0
3:55 pm 15:55 Partly Cloudy 76 24.5 56 13.1 49 49 Calm 29.77 1008 10 16.0934 0 0
4:15 pm 16:15 Partly Cloudy 77 25 58 14.2 51 51 SSE 6 9 29.77 1008 10 16.0934 0 0
4:35 pm 16:35 Mostly Cloudy 78 25.5 58 14.6 51 51 SSE 7 11 29.71 1006 10 16.0934 0 0
4:55 pm 16:55 Mostly Cloudy 77 25.2 57 14 50 50 SE 7 11 29.74 1007 10 16.0934 0 0
5:15 pm 17:15 Mostly Cloudy with Nearby Thunderstorms 77 24.9 56 13.6 50 50 SE 5 7 29.74 1007 10 16.0934 0 0
5:35 pm 17:35 Partly Cloudy 76 24.7 58 14.4 53 53 SE 6 9 29.74 1007 10 16.0934 0 0
5:55 pm 17:55 Mostly Cloudy with Nearby Thunderstorms 76 24.2 59 14.8 56 56 SW 5 7 29.77 1008 10 16.0934 0 0
6:15 pm 18:15 Cloudy 75 23.7 60 15.3 59 59 S 5 7 29.77 1008 10 16.0934 0 0
6:35 pm 18:35 Cloudy with Light Rain 74 23.1 61 16.3 66 66 SSE 8 13 29.74 1007 10 16.0934 0 0
6:55 pm 18:55 Partly Cloudy 71 21.7 61 15.9 70 70 S 10 17 29.71 1006 10 16.0934 0 0
7:15 pm 19:15 Sunny 69 20.5 60 15.4 73 73 S 6 9 29.74 1007 10 16.0934 0 0
7:35 pm 19:35 Sunny 69 20.3 59 15.2 73 73 SSE 9 15 29.74 1007 10 16.0934 0 0
7:55 pm 19:55 Sunny with Nearby Thunderstorms 68 20 59 15.2 74 74 SSE 7 11 29.74 1007 10 16.0934 0 0
8:15 pm 20:15 Sunny 68 19.9 59 15.1 74 74 ESE 7 11 29.71 1006 10 16.0934 0 0
8:35 pm 20:35 Partly Cloudy 68 20 59 15.2 74 74 S 5 7 29.68 1005 10 16.0934 0 0
8:55 pm 20:55 Partly Cloudy with Light Rain 66 19 60 15.6 81 81 SE 14 22 29.68 1005 10 16.0934 0 0
9:15 pm 21:15 Clear 67 19.6 59 15 75 75 ESE 5 7 29.71 1006 10 16.0934 0 0
9:35 pm 21:35 Clear 66 19 60 15.5 80 80 SE 5 7 29.74 1007 10 16.0934 0 0
9:55 pm 21:55 Partly Cloudy 67 19.3 61 16 81 81 ESE 5 7 29.71 1006 10 16.0934 0 0
10:15 pm 22:15 Partly Cloudy 66 19 62 16.4 85 85 E 8 13 29.71 1006 10 16.0934 0 0
10:35 pm 22:35 Partly Cloudy 66 19 62 16.5 86 86 ESE 16 26 29.71 1006 10 16.0934 0 0
10:55 pm 22:55 Partly Cloudy 66 19 61 16.3 84 84 S 7 11 29.77 1008 10 16.0934 0 0
11:15 pm 23:15 Partly Cloudy 65 18.6 61 16.2 86 86 ESE 8 13 29.77 1008 10 16.0934 0 0
11:35 pm 23:35 Clear 65 18.5 61 16.1 86 86 Calm 29.83 1010 10 16.0934 0 0
11:55 pm 23:55 Partly Cloudy 65 18.3 62 16.5 89 89 WNW 8 13 29.85 1011 7 11.26538 0 0

Powered by AerisWeather